Weather History for Rocky Mount, NC

Change the Weather History Date:

Thursday, January 24, 2013

  Actual Average Record
Temperature  
Mean Temperature 28 °F -  
Max Temperature 37 °F 54 °F 77 °F (1967)
Min Temperature 19 °F 31 °F 12 °F (1963)
Degree Days  
Heating Degree Days 37    
Moisture  
Dew Point 13 °F    
Average Humidity 52    
Maximum Humidity 76    
Minimum Humidity 31    
Precipitation  
Precipitation 0.00 in - - ()
Sea Level Pressure  
Sea Level Pressure 30.29 in    
Wind  
Wind Speed 9 mph (NNW)    
Max Wind Speed 25 mph    
Max Gust Speed 36 mph    
Visibility 10 miles    
Events      
Averages and records for this station are not official NWS values.
T = Trace of Precipitation, MM = Missing Value Source: NWS Daily Summary

Daily Weather History Graph

Daily Weather History Graph

Search for Another Location

Airport:

Trip Planner

Search our weather history database for the weather conditions in past years. The results will help you decide how hot, cold, wet, or windy it might be!

Date:

Astronomy

Jan. 24, 2013 Rise Set
Actual Time 7:17 AM EST 5:30 PM EST
Civil Twilight 6:49 AM EST 5:58 PM EST
Nautical Twilight 6:18 AM EST 6:29 PM EST
Astronomical Twilight 5:48 AM EST 6:59 PM EST
Moon 3:32 PM EST (1/24) 5:12 AM EST (1/24)
Length of Visible Light 11h 08m
Length of Day
10h 13m
Waxing Gibbous, 94% of the Moon is Illuminated
Jan 24
Waxing Gibbous
Jan 26
Full
Feb 3
Last Quarter
Feb 10
New
Feb 17
First Quarter

Hourly Weather History & Observations

Time (EST) Temp. Windchill Dew Point Humidity Pressure Visibility Wind Dir Wind Speed Gust Speed Precip Events Conditions
12:53 AM 30.0 °F 25.2 °F 16.0 °F 56% 30.05 in 10.0 mi South 4.6 mph - N/A   Clear
1:53 AM 28.0 °F - 18.0 °F 66% 30.03 in 10.0 mi Calm Calm - N/A   Clear
2:53 AM 28.0 °F 22.8 °F 19.9 °F 72% 30.01 in 10.0 mi SSW 4.6 mph - N/A   Clear
3:53 AM 28.9 °F 25.2 °F 21.0 °F 72% 29.99 in 10.0 mi SSW 3.5 mph - N/A   Clear
4:53 AM 30.9 °F 24.3 °F 24.1 °F 76% 29.96 in 10.0 mi SSW 6.9 mph - N/A   Mostly Cloudy
5:53 AM 35.1 °F 26.9 °F 25.0 °F 67% 30.02 in 10.0 mi NNW 11.5 mph 20.7 mph N/A   Overcast
6:53 AM 34.0 °F 27.2 °F 21.9 °F 61% 30.06 in 10.0 mi NNW 8.1 mph - N/A   Overcast
7:53 AM 34.0 °F 24.2 °F 18.0 °F 52% 30.11 in 10.0 mi North 15.0 mph - N/A   Overcast
8:53 AM 33.1 °F 23.9 °F 18.0 °F 54% 30.17 in 10.0 mi North 12.7 mph - N/A   Clear
9:53 AM 36.0 °F 24.4 °F 17.1 °F 46% 30.22 in 10.0 mi North 23.0 mph 31.1 mph N/A   Clear
10:53 AM 37.9 °F 27.3 °F 14.0 °F 38% 30.27 in 10.0 mi NNW 21.9 mph 35.7 mph N/A   Clear
11:53 AM 35.1 °F 22.7 °F 12.9 °F 40% 30.30 in 10.0 mi North 25.3 mph 35.7 mph N/A   Clear
12:53 PM 34.0 °F 22.7 °F 12.9 °F 42% 30.34 in 10.0 mi North 19.6 mph 29.9 mph N/A   Overcast
1:53 PM 32.0 °F 19.5 °F 8.1 °F 37% 30.37 in 10.0 mi North 21.9 mph 28.8 mph N/A   Mostly Cloudy
2:53 PM 32.0 °F 21.2 °F 6.1 °F 34% 30.40 in 10.0 mi NNW 16.1 mph 25.3 mph N/A   Clear
3:53 PM 32.0 °F 23.0 °F 3.9 °F 31% 30.43 in 10.0 mi North 11.5 mph 23.0 mph N/A   Partly Cloudy
4:53 PM 30.0 °F 20.0 °F 3.9 °F 33% 30.46 in 10.0 mi North 12.7 mph - N/A   Clear
5:53 PM 27.0 °F 18.0 °F 5.0 °F 39% 30.48 in 10.0 mi North 9.2 mph - N/A   Clear
6:53 PM 23.0 °F 17.0 °F 8.1 °F 53% 30.51 in 10.0 mi NNE 4.6 mph - N/A   Clear
7:53 PM 23.0 °F 17.0 °F 7.0 °F 50% 30.53 in 10.0 mi North 4.6 mph - N/A   Clear
8:53 PM 23.0 °F - 9.0 °F 55% 30.54 in 10.0 mi Calm Calm - N/A   Clear
9:53 PM 21.0 °F - 8.1 °F 57% 30.54 in 10.0 mi Calm Calm - N/A   Clear
10:53 PM 19.9 °F - 9.0 °F 62% 30.55 in 10.0 mi Calm Calm - N/A   Clear
11:53 PM 19.9 °F - 8.1 °F 60% 30.54 in 10.0 mi Calm Calm - N/A   Clear